Effective Sunday, March 17, 2024, the National Weather Service National Data Buoy Center will discontinue its Dial-A-Buoy Interactive Voice Response system. For more information, see Service Change Notice 24-06 (PDF).

Station NBLP1 - 8548989 - Newbold, PA Image indicating link to RSS feed of recent meteorological observations for station NBLP1


Conditions at NBLP1 as of
(10:00 pm EST on 02/23/2024)
0300 GMT on 02/24/2024:
     

Click on the graph icon in the table below to see a time series plot of the last five days of that observation.

5-day plot - Wind Direction Wind Direction (WDIR): W ( 260 deg true )
5-day plot - Wind Speed Wind Speed (WSPD): 1.9 kts
5-day plot - Wind Gust Wind Gust (GST): 1.9 kts
5-day plot - Atmospheric Pressure Atmospheric Pressure (PRES):29.51 in
5-day plot - Pressure Tendency Pressure Tendency (PTDY):+0.02 in ( Rising )
5-day plot - Air Temperature Air Temperature (ATMP): 41.2 °F
5-day plot - Water Temperature Water Temperature (WTMP): 41.2 °F
5-day plot - Wind Speed at 10 Meters Wind Speed at 10 meters (WSPD10M): 1.9 kts
5-day plot - Wind Speed at 20 Meters Wind Speed at 20 meters (WSPD20M): 1.9 kts
5-day plot -  Wind Speed, Wind Gust and Atmospheric Pressure Combined plot of Wind Speed, Gust, and Air Pressure
NOS Water Level Observation Network Water Level
Previous observations
TIME
(EST)
5-day plot - Wind Direction
WDIR
 
5-day plot - Wind Speed
WSPD
kts
5-day plot - Wind Gust
GST
kts
5-day plot - Wave Height
WVHT
ft
5-day plot - Dominant Wave Period
DPD
sec
5-day plot - Average Wave Period
APD
sec
5-day plot - Mean Wave Direction
MWD
 
5-day plot - Atmospheric Pressure
PRES
in
5-day plot - Pressure Tendency
PTDY
in
5-day plot - Air Temperature
ATMP
°F
5-day plot - Water Temperature
WTMP
°F
5-day plot - Dew Point
DEWP
°F
5-day plot - Salinity
SAL
psu
5-day plot - Visibility
VIS
nmi
5-day plot - Tide (above MLLW)
TIDE
ft
2024-02-23 09:54 pm- 0.0 1.0----29.51- 41.2 41.2----
2024-02-23 09:48 pm- 0.0 1.9----29.51- 41.4 41.2----
2024-02-23 09:42 pm SW 1.0 1.9----29.52- 42.1 41.0----
2024-02-23 09:36 pm SW 1.0 1.9----29.52- 42.3 41.0----
2024-02-23 09:30 pm- 0.0 2.9----29.51- 41.7 41.0----
2024-02-23 09:24 pmNNW 1.9 4.1----29.51- 43.2 41.0----
2024-02-23 09:18 pm NW 1.9 4.1----29.51- 42.4 41.0----
2024-02-23 09:12 pm W 1.9 2.9----29.51- 42.3 41.0----
2024-02-23 09:06 pm W 1.0 1.9----29.51- 42.1 41.0----
2024-02-23 09:00 pm- 0.0 1.9----29.50+0.02 43.0 41.0----
2024-02-23 08:54 pmNNW 1.0 2.9----29.50- 44.1 41.0----
2024-02-23 08:48 pmNNW 2.9 4.1----29.50- 44.2 41.0----
2024-02-23 08:42 pmNNW 4.1 5.1----29.49- 44.4 41.0----
2024-02-23 08:36 pmNNW 2.9 5.1----29.49- 44.2 41.0----
2024-02-23 08:30 pm NW 2.9 5.1----29.49-------
2024-02-23 08:24 pmNNW 1.9 4.1----29.49-------
2024-02-23 08:18 pm NW 2.9 5.1----29.50-- 41.0----
2024-02-23 08:12 pm NW 1.9 4.1----29.50-- 41.0----
2024-02-23 08:06 pm- 0.0 1.9----29.49-- 41.0----
2024-02-23 08:00 pm W 1.9 4.1----29.50+0.04- 41.0----
2024-02-23 07:54 pm W 2.9 4.1----29.50-- 41.0----
2024-02-23 07:48 pmWNW 1.9 4.1----29.49-- 41.0----
2024-02-23 07:42 pmNNW 1.9 5.1----29.49-- 41.0----
2024-02-23 07:36 pmNNW 2.9 4.1----29.48-- 41.0----
2024-02-23 07:30 pmNNW 1.9 4.1----29.49-- 41.0----
2024-02-23 07:24 pmNNW 1.9 4.1----29.49-- 41.0----
2024-02-23 07:18 pmNNW 2.9 4.1----29.49-- 41.0----
2024-02-23 07:12 pmNNW 2.9 4.1----29.49-- 41.0----
2024-02-23 07:06 pmNNW 1.9 2.9----29.48-- 41.0----
2024-02-23 07:00 pmNNW 1.9 4.1----29.48+0.02------
2024-02-23 06:54 pmNNW 1.9 2.9----29.49-------
2024-02-23 06:48 pmNNW 1.9 4.1----29.49- 45.9 41.0----
2024-02-23 06:42 pmNNW 1.9 2.9----29.49- 45.9 41.0----
2024-02-23 06:36 pmNNW 1.9 4.1----29.49- 45.7 41.0----
2024-02-23 06:30 pmNNW 2.9 4.1----29.49- 45.7 41.0----
2024-02-23 06:24 pmNNW 2.9 2.9----29.49- 45.9 41.0----
2024-02-23 06:18 pmNNW 1.0 2.9----29.49-- 41.0----
2024-02-23 06:06 pmNNW 2.9 4.1----29.49-- 41.0----
2024-02-23 06:00 pm NW 1.9 2.9----29.48+0.03 46.4 41.0----
2024-02-23 05:54 pmNNW 1.9 2.9----29.48- 46.4 41.0----
2024-02-23 05:48 pm NW 1.9 4.1----29.48- 46.4 41.0----
2024-02-23 05:42 pmNNW 1.9 4.1----29.48- 46.6 41.0----
2024-02-23 05:36 pmNNW 1.9 5.1----29.48- 46.8 41.0----
2024-02-23 05:30 pmNNW 2.9 5.1----29.47- 46.8 41.0----
2024-02-23 05:24 pmNNW 2.9 4.1----29.47- 46.9 41.0----
2024-02-23 05:18 pmNNW 2.9 5.1----29.47- 46.9 41.0----
2024-02-23 05:12 pmNNW 1.9 4.1----29.47- 47.1 41.0----
2024-02-23 05:06 pmNNW 2.9 4.1----29.47- 47.1 41.0----
2024-02-23 05:00 pmNNW 4.1 5.1----29.47+0.00 47.1 41.0----
2024-02-23 04:54 pmNNW 4.1 6.0----29.46- 47.3 41.0----
2024-02-23 04:48 pmNNW 4.1 6.0----29.46- 47.1 41.0----
2024-02-23 04:42 pmNNW 4.1 6.0----29.47- 47.3 40.8----
2024-02-23 04:36 pmNNW 4.1 7.0----29.46- 47.3 40.8----
2024-02-23 04:30 pmNNW 5.1 7.0----29.47- 47.3 40.8----
2024-02-23 04:24 pmNNW 2.9 5.1----29.47- 47.3 40.8----
2024-02-23 04:18 pm N 1.9 6.0----29.47- 47.3 40.8----
2024-02-23 04:12 pm N 4.1 5.1----29.47- 47.3 40.8----
2024-02-23 04:06 pm N 4.1 7.0----29.46- 47.3 40.8----
2024-02-23 04:00 pm N 2.9 6.0----29.46-0.02 47.5 40.8----
2024-02-23 03:54 pm N 1.9 4.1----29.46- 47.5 40.8----
2024-02-23 03:48 pm N 2.9 5.1----29.46- 47.7 40.8----
2024-02-23 03:42 pmNNW 2.9 6.0----29.46- 47.7 40.8----
2024-02-23 03:36 pmNNW 1.9 6.0----29.46- 47.5 40.8----
2024-02-23 03:30 pmNNW 2.9 5.1----29.46- 47.5 40.8----
2024-02-23 03:24 pm NW 5.1 6.0----29.46- 47.1 40.8----
2024-02-23 03:18 pm N 2.9 6.0----29.46- 47.3 40.8----
2024-02-23 03:12 pmNNW 4.1 7.0----29.46- 47.3 40.8----
2024-02-23 03:06 pmNNW 4.1 8.0----29.46- 47.3 40.8----
2024-02-23 03:00 pmNNW 2.9 6.0----29.46-0.05 47.3 40.8----
2024-02-23 02:54 pm N 1.9 5.1----29.45- 46.9 40.8----
2024-02-23 02:48 pm N 2.9 7.0----29.46- 46.9 40.8----
2024-02-23 02:42 pm N 1.9 5.1----29.46- 46.9 40.8----
2024-02-23 02:36 pm N 4.1 8.0----29.46- 46.8 40.8----
2024-02-23 02:30 pm N 4.1 6.0----29.46- 46.8 40.8----
2024-02-23 02:24 pm N 1.9 6.0----29.46- 46.8 40.8----
2024-02-23 02:18 pm N 2.9 6.0----29.46- 46.4 40.8----
2024-02-23 02:12 pmNNW 2.9 7.0----29.46- 46.8 40.8----
2024-02-23 02:06 pm NW 5.1 7.0----29.47- 46.4 40.8----
2024-02-23 02:00 pmNNW 4.1 7.0----29.47-0.06 46.8 40.8----
2024-02-23 01:54 pmNNW 4.1 8.0----29.47- 46.9 40.8----
2024-02-23 01:48 pmNNW 6.0 8.9----29.47- 46.8 40.8----
2024-02-23 01:42 pmNNW 5.1 7.0----29.47- 46.9 40.8----
2024-02-23 01:36 pmNNW 5.1 8.0----29.48- 47.1 40.8----
2024-02-23 01:30 pmNNW 5.1 7.0----29.48- 47.5 40.8----
2024-02-23 01:24 pmNNW 5.1 8.0----29.48- 47.3 40.8----
2024-02-23 01:18 pmNNW 5.1 8.0----29.48- 47.5 40.8----
2024-02-23 01:12 pm NW 5.1 8.0----29.48- 47.3 40.8----
2024-02-23 01:06 pm NW 6.0 8.9----29.48- 47.1 40.6----
2024-02-23 01:00 pm NW 6.0 7.0----29.48-0.05 47.1 40.6----
2024-02-23 12:54 pm NW 5.1 6.0----29.49- 47.1 40.6----
2024-02-23 12:48 pmNNW 1.9 6.0----29.49- 47.3 40.6----
2024-02-23 12:42 pm NW 4.1 5.1----29.49- 46.4 40.6----
2024-02-23 12:36 pmNNW 1.0 5.1----29.50- 46.4 40.6----
2024-02-23 12:30 pmNNW 1.9 5.1----29.50- 46.0 40.6----
2024-02-23 12:24 pm W 1.9 2.9----29.50- 44.8 40.6----
2024-02-23 12:18 pm W 2.9 4.1----29.50- 44.2 40.6----
2024-02-23 12:12 pmWSW 4.1 5.1----29.50- 43.7 40.6----
2024-02-23 12:06 pmWSW 2.9 4.1----29.50- 44.2 40.6----
2024-02-23 12:00 pm- 0.0 1.9----29.51-0.04 45.5 40.6----
2024-02-23 11:54 am W 1.9 5.1----29.51- 45.7 40.6----
2024-02-23 11:48 am W 1.9 4.1----29.52- 46.0 40.6----
2024-02-23 11:42 am N 1.9 2.9----29.51- 46.4 40.6----
2024-02-23 11:36 amNNE 1.9 2.9----29.51- 46.0 40.6----
2024-02-23 11:30 am N 1.9 4.1----29.51- 45.9 40.6----
2024-02-23 11:24 amNNW 1.0 2.9----29.52- 46.2 40.6----
2024-02-23 11:18 am- 0.0 2.9----29.52- 45.7 40.6----
2024-02-23 11:12 amNNW 2.9 5.1----29.52- 45.3 40.6----
2024-02-23 11:06 amNNW 2.9 5.1----29.52- 45.1 40.6----
2024-02-23 11:00 amNNW 2.9 6.0----29.53-0.02 44.8 40.6----
2024-02-23 10:54 amNNW 4.1 7.0----29.53- 44.8 40.6----
2024-02-23 10:48 amNNW 5.1 6.0----29.53- 44.4 40.6----
2024-02-23 10:42 am N 1.9 4.1----29.52- 44.1 40.6----
2024-02-23 10:36 am N 1.9 2.9----29.53- 43.5 40.5----
2024-02-23 10:30 am W 1.0 2.9----29.53- 42.4 40.5----
2024-02-23 10:24 am SW 2.9 4.1----29.54- 42.1 40.5----
2024-02-23 10:18 amWSW 2.9 4.1----29.53- 41.9 40.5----
2024-02-23 10:12 am W 1.9 4.1----29.53- 42.4 40.3----
2024-02-23 10:06 amNNW 1.9 2.9----29.54- 43.5 40.3----
2024-02-23 10:00 am N 1.0 2.9----29.54+0.00 43.2 40.3----
2024-02-23 09:54 am N 1.0 2.9----29.53- 43.0 40.3----
2024-02-23 09:48 am N 1.9 2.9----29.53- 43.0 40.3----
2024-02-23 09:42 am N 1.9 4.1----29.53- 42.8 40.3----
2024-02-23 09:36 am N 2.9 4.1----29.53- 42.4 40.3----
2024-02-23 09:30 amNNW 2.9 4.1----29.54- 41.7 40.1----
2024-02-23 09:24 amNNW 4.1 5.1----29.54- 41.5 40.1----
2024-02-23 09:18 amNNW 4.1 5.1----29.54- 41.4 40.1----
2024-02-23 09:12 amNNW 2.9 2.9----29.54- 41.4 40.1----
2024-02-23 09:06 am W 1.9 2.9----29.55- 40.8 40.1----
2024-02-23 09:00 am W 1.9 1.9----29.55+0.01 40.6 40.1----
2024-02-23 08:54 am W 1.0 1.9----29.55- 40.5 40.1----
2024-02-23 08:48 am W 1.9 1.9----29.55- 40.3 40.1----
2024-02-23 08:42 am SW 1.0 1.0----29.55- 40.3 40.1----
2024-02-23 08:36 am SW 1.0 1.9----29.55- 40.3 40.1----
2024-02-23 08:30 amWSW 1.9 1.9----29.56- 40.1 40.1----
2024-02-23 08:24 amWSW 1.0 1.9----29.56- 40.3 40.1----
2024-02-23 08:18 am- 0.0 1.0----29.56- 40.5 40.1----
2024-02-23 08:12 am- 0.0 1.0----29.56- 40.6 40.1----
2024-02-23 08:06 am- 0.0 1.0----29.55- 40.5 40.1----
2024-02-23 08:00 amNNE 1.0 1.9----29.55+0.01 40.6 40.1----
2024-02-23 07:54 am N 1.0 1.9----29.55- 40.5 40.1----
2024-02-23 07:48 am N 1.0 2.9----29.55- 40.5 40.1----
2024-02-23 07:42 am N 1.9 4.1----29.55- 40.5 40.1----
2024-02-23 07:36 am N 1.0 2.9----29.55- 40.5 39.9----
2024-02-23 07:30 am N 1.9 4.1----29.55- 40.5 39.9----
2024-02-23 07:24 amNNW 2.9 5.1----29.55- 40.5 39.9----
2024-02-23 07:18 amNNW 2.9 5.1----29.54- 40.3 39.9----
2024-02-23 07:12 am N 1.9 4.1----29.54- 40.3 39.9----
2024-02-23 07:06 amNNW 2.9 5.1----29.54- 40.3 39.9----
2024-02-23 07:00 am N 1.0 4.1----29.54+0.00 40.3 39.9----
2024-02-23 06:54 am N 1.9 4.1----29.53- 40.3 39.9----
2024-02-23 06:48 am N 1.9 5.1----29.54- 40.3 39.9----
2024-02-23 06:42 am N 1.9 4.1----29.54- 40.3 39.9----
2024-02-23 06:36 am N 1.9 4.1----29.53- 40.3 39.9----
2024-02-23 06:30 am N 2.9 4.1----29.54- 40.5 39.9----
2024-02-23 06:24 am N 1.0 2.9----29.54- 40.5 39.9----
2024-02-23 06:18 amNNW 1.9 4.1----29.54- 40.3 39.9----
2024-02-23 06:12 amNNW 2.9 2.9----29.55- 40.3 39.9----
2024-02-23 06:06 amNNW 1.0 2.9----29.54- 40.3 39.9----
2024-02-23 06:00 am N 1.0 2.9----29.54-0.04 40.3 39.9----
2024-02-23 05:54 am N 1.0 2.9----29.54- 40.3 39.9----
2024-02-23 05:48 amNNE 2.9 4.1----29.55- 40.3 39.9----
2024-02-23 05:42 am N 1.9 4.1----29.55- 40.1 39.9----
2024-02-23 05:36 amNNE 2.9 4.1----29.54- 40.1 39.9----
2024-02-23 05:30 amENE 1.0 2.9----29.54- 40.1 39.9----
2024-02-23 05:24 am NE 1.0 2.9----29.54- 40.1 39.9----
2024-02-23 05:18 am NE 1.9 2.9----29.54- 40.1 39.9----
2024-02-23 05:12 am E 1.9 2.9----29.54- 40.3 39.9----
2024-02-23 05:06 amNNE 1.9 1.9----29.54- 40.3 39.9----
2024-02-23 05:00 amNNE 1.9 2.9----29.54-0.06 40.3 39.9----
2024-02-23 04:54 am E 1.9 2.9----29.54- 40.1 39.9----
2024-02-23 04:48 amENE 1.0 2.9----29.54- 40.3 39.9----
2024-02-23 04:42 amNNE 2.9 2.9----29.54- 40.3 39.7----
2024-02-23 04:36 amENE 1.0 1.9----29.54- 40.3 39.7----
2024-02-23 04:30 am NE 1.9 2.9----29.54- 40.3 39.7----
2024-02-23 04:24 amNNE 1.9 1.9----29.54- 40.1 39.7----
2024-02-23 04:18 amNNE 1.0 1.0----29.54- 40.1 39.7----
2024-02-23 04:12 am- 0.0 4.1----29.54- 39.9 39.7----
2024-02-23 04:06 am SE 2.9 2.9----29.55- 39.9 39.7----
2024-02-23 04:00 amNNE 1.0 2.9----29.54-0.09 40.1 39.7----
2024-02-23 03:54 am NE 1.9 2.9----29.54- 40.1 39.7----
2024-02-23 03:48 am E 2.9 4.1----29.54- 39.9 39.7----
2024-02-23 03:42 am E 1.9 7.0----29.54- 39.9 39.7----
2024-02-23 03:36 amESE 4.1 6.0----29.55- 40.1 39.7----
2024-02-23 03:30 amNNE 4.1 6.0----29.54- 40.3 39.7----
2024-02-23 03:24 amNNE 5.1 6.0----29.54- 40.3 39.7----
2024-02-23 03:18 amNNE 5.1 6.0----29.55- 40.5 39.7----
2024-02-23 03:12 amNNE 2.9 5.1----29.56- 40.5 39.7----
2024-02-23 03:06 amNNE 2.9 4.1----29.57- 40.5 39.7----
2024-02-23 03:00 amNNE 2.9 2.9----29.58-0.08 40.5 39.7----
2024-02-23 02:54 amENE 1.9 2.9----29.58- 40.5 39.7----
2024-02-23 02:48 amNNE 1.9 2.9----29.58- 40.5 39.7----
2024-02-23 02:42 am- 0.0 1.9----29.58- 40.5 39.7----
2024-02-23 02:36 am NE 1.9 2.9----29.58- 40.5 39.7----
2024-02-23 02:30 am NE 1.9 2.9----29.58- 40.5 39.7----
2024-02-23 02:24 am NE 1.0 1.9----29.58- 40.5 39.7----
2024-02-23 02:18 am NE 1.9 4.1----29.58- 40.5 39.7----
2024-02-23 02:12 amNNE 4.1 4.1----29.58- 40.5 39.7----
2024-02-23 02:06 amNNE 2.9 2.9----29.59- 40.5 39.7----
2024-02-23 02:00 am NE 1.9 1.9----29.59-0.09 40.5 39.7----
2024-02-23 01:54 am- 0.0 2.9----29.60- 40.5 39.7----
2024-02-23 01:48 amNNE 2.9 5.1----29.60- 40.5 39.7----
2024-02-23 01:42 am NE 2.9 5.1----29.60- 40.6 39.7----
2024-02-23 01:36 amENE 1.9 2.9----29.60- 40.5 39.7----
2024-02-23 01:30 am NE 2.9 4.1----29.60- 40.5 39.6----
2024-02-23 01:24 amENE 1.9 2.9----29.61- 40.5 39.6----
2024-02-23 01:18 amENE 2.9 4.1----29.62- 40.6 39.6----
2024-02-23 01:12 amENE 1.9 4.1----29.62- 40.6 39.6----
2024-02-23 01:06 amENE 1.9 4.1----29.62- 40.6 39.6----
2024-02-23 01:00 amENE 1.9 2.9----29.63-0.10 40.6 39.6----
2024-02-23 12:54 amENE 1.9 2.9----29.63- 40.6 39.6----
2024-02-23 12:48 am E 1.9 2.9----29.64- 40.3 39.6----
2024-02-23 12:42 am NE 1.0 1.9----29.64- 41.2 39.6----
2024-02-23 12:36 amNNE 1.9 1.9----29.65- 41.0 39.6----
2024-02-23 12:30 amNNE 1.9 1.9----29.65- 40.8 39.6----
2024-02-23 12:24 amNNE 1.0 2.9----29.65- 40.6 39.6----
2024-02-23 12:18 amNNE 1.9 1.9----29.65- 40.6 39.6----
2024-02-23 12:12 amNNE 1.9 1.9----29.65- 40.6 39.6----
2024-02-23 12:06 amENE 1.0 1.9----29.65- 40.6 39.6----
2024-02-23 12:00 am NE 1.0 1.9----29.66-0.10 40.6 39.6----
2024-02-22 11:54 pm- 0.0 1.0----29.66- 40.6 39.6----
2024-02-22 11:48 pm NE 1.0 1.0----29.67- 40.5 39.6----
2024-02-22 11:42 pm- 0.0 0.0----29.67- 40.5 39.6----
2024-02-22 11:36 pm- 0.0 0.0----29.67- 40.3 39.6----
2024-02-22 11:30 pm- 0.0 0.0----29.67- 40.3 39.6----
2024-02-22 11:24 pm- 0.0 1.9----29.68- 40.3 39.6----
2024-02-22 11:18 pm- 0.0 1.9----29.67- 40.3 39.6----
2024-02-22 11:12 pm- 0.0 0.0----29.68- 40.1 39.6----
2024-02-22 11:06 pm- 0.0 0.0----29.68- 40.1 39.6----
2024-02-22 11:00 pm- 0.0 1.9----29.69-0.11 40.1 39.6----
2024-02-22 10:54 pmSSE 1.9 2.9----29.69- 40.1 39.6----
2024-02-22 10:48 pmSSE 1.9 2.9----29.69- 39.9 39.6----
2024-02-22 10:42 pmSSE 1.9 2.9----29.70- 39.9 39.6----
2024-02-22 10:36 pmSSE 1.9 2.9----29.70- 39.9 39.6----
2024-02-22 10:30 pmSSE 2.9 4.1----29.71- 39.9 39.6----
2024-02-22 10:24 pm S 2.9 2.9----29.71- 39.9 39.6----
2024-02-22 10:18 pmSSE 1.9 2.9----29.71- 39.7 39.6----
2024-02-22 10:12 pmSSE 2.9 5.1----29.72- 39.7 39.6----
2024-02-22 10:06 pm S 4.1 5.1----29.72- 39.7 39.6----
2024-02-22 10:00 pm S 4.1 5.1----29.73-0.08 39.7 39.6----
2024-02-22 09:54 pmSSE 1.9 6.0----29.73- 39.7 39.6----